FW6915 Weather Reports


time (UTC)temp
C
wind
direction
speed
KPH
gust
KPH
rain 1hr
cm
rain 24hr
cm
rain mn
cm
humidity
%
barometer
mb
20260505100708 11 15 0.0 0.0 0.00 0.00 0.00 93 1013.0
20260505100526 11 21 0.0 0.0 0.00 0.00 0.00 93 1012.9
20260505095708 11 21 0.0 0.0 0.00 0.00 0.00 93 1013.0
20260505095211 11 358 0.0 0.0 0.00 0.00 0.00 94 1012.9
20260505094705 11 342 0.0 0.0 0.00 0.00 0.00 94 1012.8
20260505094521 11 5 0.0 0.0 0.00 0.00 0.00 94 1012.8
20260505094515 11 5 0.0 0.0 0.00 0.00 0.00 94 1012.8
20260505094404 11 5 0.0 0.0 0.00 0.00 0.00 94 1012.8
20260505092703 11 10 0.0 0.0 0.00 0.00 0.00 94 1012.8
20260505092205 11 10 0.0 0.0 0.00 0.00 0.00 94 1012.8
20260505091707 10 10 0.0 0.0 0.00 0.00 0.00 94 1012.8
20260505091204 10 10 0.0 0.0 0.00 0.00 0.00 94 1012.8
20260505090700 11 23 0.0 0.0 0.00 0.00 0.00 94 1012.8
20260505090158 11 358 0.0 0.0 0.00 0.00 0.00 94 1012.8
20260505085701 11 36 0.0 0.0 0.00 0.00 0.00 94 1012.7
20260505085156 11 36 0.0 0.0 0.00 0.00 0.00 94 1012.7
20260505084658 11 34 0.0 0.0 0.00 0.00 0.00 94 1012.7
20260505084153 11 10 0.0 0.0 0.00 0.00 0.00 95 1012.8
20260505083653 11 10 0.0 0.0 0.00 0.00 0.00 95 1012.7
20260505083153 11 10 0.0 0.0 0.00 0.00 0.00 95 1012.7
20260505082655 11 5 0.0 0.0 0.00 0.00 0.00 95 1012.7
20260505082156 11 5 0.0 0.0 0.00 0.00 0.00 95 1012.7
20260505081657 11 5 0.0 0.0 0.00 0.00 0.00 95 1012.7
20260505081154 11 5 0.0 0.0 0.00 0.00 0.00 95 1012.7
20260505080653 11 15 0.0 0.0 0.00 0.00 0.00 95 1012.7
20260505080159 11 15 0.0 0.0 0.00 0.00 0.00 95 1012.7
20260505080005 11 15 0.0 0.0 0.00 0.00 0.00 95 1012.6
20260505075202 11 15 0.0 0.0 0.00 0.00 0.00 95 1012.6
20260505074658 11 15 0.0 0.0 0.00 0.00 0.00 95 1012.6
20260505074200 10 15 0.0 0.0 0.00 0.00 0.00 95 1012.6
20260505073700 10 15 0.0 0.0 0.00 0.00 0.00 95 1012.7
20260505073512 10 15 0.0 0.0 0.00 0.00 0.00 96 1012.7
20260505072653 10 15 0.0 0.0 0.00 0.00 0.00 95 1012.6
20260505072153 10 5 0.0 0.0 0.00 0.00 0.00 96 1012.6
20260505071655 10 5 0.0 0.0 0.00 0.00 0.00 95 1012.6
20260505071155 10 5 0.0 0.0 0.00 0.00 0.00 95 1012.6
20260505071002 10 5 0.0 0.0 0.00 0.00 0.00 95 1012.7
20260505070155 10 5 0.0 0.0 0.00 0.00 0.00 95 1012.7
20260505065655 10 5 0.0 0.0 0.00 0.00 0.00 95 1012.7
20260505065148 10 5 0.0 0.0 0.00 0.00 0.00 95 1012.6
20260505064649 10 5 0.0 0.0 0.00 0.00 0.00 95 1012.6
20260505064147 9 5 0.0 0.0 0.00 0.00 0.00 95 1012.6
20260505063645 9 5 0.0 0.0 0.00 0.00 0.00 95 1012.7
20260505063142 9 5 0.0 0.0 0.00 0.00 0.00 95 1012.6
20260505062639 9 5 0.0 0.0 0.00 0.00 0.00 95 1012.6
20260505062141 9 5 0.0 0.0 0.00 0.00 0.00 95 1012.5
20260505061637 9 5 0.0 0.0 0.00 0.00 0.00 95 1012.4
20260505061138 9 5 0.0 0.0 0.00 0.00 0.00 95 1012.5
20260505060639 8 5 0.0 0.0 0.00 0.00 0.00 95 1012.5
20260505060448 8 5 0.0 0.0 0.00 0.00 0.00 95 1012.5
20260505055633 8 5 0.0 0.0 0.00 0.00 0.00 95 1012.5
20260505055132 8 5 0.0 0.0 0.00 0.00 0.00 95 1012.5
20260505054630 8 5 0.0 0.0 0.00 0.00 0.00 95 1012.4
20260505054129 8 5 0.0 0.0 0.00 0.00 0.00 95 1012.4
20260505053626 8 5 0.0 0.0 0.00 0.00 0.00 95 1012.4
20260505053120 8 5 0.0 0.0 0.00 0.00 0.00 95 1012.4
20260505052616 9 5 0.0 0.0 0.00 0.00 0.00 95 1012.4
20260505052113 9 5 0.0 0.0 0.00 0.00 0.00 95 1012.5
20260505051920 9 5 0.0 0.0 0.00 0.00 0.00 95 1012.5
20260505051437 9 5 0.0 0.0 0.00 0.00 0.00 95 1012.5
20260505050604 9 5 0.0 0.0 0.00 0.00 0.00 95 1012.5
20260505041553 10 5 0.0 0.0 0.00 0.00 0.00 95 1012.3
20260505041051 10 5 0.0 0.0 0.00 0.00 0.00 95 1012.3
20260505040550 10 5 0.0 0.0 0.00 0.00 0.00 95 1012.2
20260505040044 10 5 0.0 0.0 0.00 0.00 0.00 95 1012.3
20260505035541 10 5 0.0 0.0 0.00 0.00 0.00 95 1012.3
20260505035038 10 5 0.0 0.0 0.00 0.00 0.00 95 1012.2
20260505034535 10 5 0.0 0.0 0.00 0.00 0.00 95 1012.2
20260505034033 10 5 0.0 0.0 0.00 0.00 0.00 95 1012.2
20260505033836 10 5 0.0 0.0 0.00 0.00 0.00 95 1012.2
20260505033033 10 5 0.0 0.0 0.00 0.00 0.00 95 1012.2
20260505032530 10 5 0.0 0.0 0.00 0.00 0.00 95 1012.2
20260505032032 10 5 0.0 0.0 0.00 0.00 0.00 95 1012.3
20260505031528 10 5 0.0 0.0 0.00 0.00 0.00 95 1012.3
20260505031337 10 5 0.0 0.0 0.00 0.00 0.00 95 1012.3
20260505030529 10 5 0.0 0.0 0.00 0.00 0.00 95 1012.3
20260505030026 10 5 0.0 0.0 0.00 0.00 0.00 95 1012.3
20260505025830 10 5 0.0 0.0 0.00 0.00 0.00 95 1012.4
20260505025327 10 5 0.0 0.0 0.00 0.00 0.00 95 1012.3
20260505024520 10 5 0.0 0.0 0.00 0.00 0.00 95 1012.4
20260505024018 10 5 0.0 0.0 0.00 0.00 0.00 95 1012.4
20260505023520 10 5 0.0 0.0 0.00 0.00 0.00 94 1012.4
20260505023013 10 5 0.0 0.0 0.00 0.00 0.00 94 1012.4
20260505022513 10 5 0.0 0.0 0.00 0.00 0.00 94 1012.4
20260505022012 10 5 0.0 0.0 0.00 0.00 0.00 94 1012.5
20260505021510 10 5 0.0 0.0 0.00 0.00 0.00 94 1012.5
20260505021008 10 5 0.0 0.0 0.00 0.00 0.00 94 1012.5
20260505020504 10 5 0.0 0.0 0.00 0.00 0.00 94 1012.5
20260505020008 10 5 0.0 0.0 0.00 0.00 0.00 94 1012.5
20260505015508 10 5 0.0 0.0 0.00 0.00 0.00 94 1012.5
20260505015002 10 5 0.0 0.0 0.00 0.00 0.00 94 1012.5
20260505014503 11 5 0.0 0.0 0.00 0.00 0.00 94 1012.6
20260505014004 11 5 0.0 0.0 0.00 0.00 0.00 94 1012.6
20260505013504 11 5 0.0 0.0 0.00 0.00 0.00 94 1012.6
20260505013004 11 5 0.0 0.0 0.00 0.00 0.00 94 1012.8
20260505012504 11 5 0.0 0.0 0.00 0.00 0.00 94 1012.7
20260505012313 11 5 0.0 0.0 0.00 0.00 0.00 94 1012.8
20260505011504 11 5 0.0 0.0 0.00 0.00 0.00 94 1012.8
20260505011308 11 5 0.0 0.0 0.00 0.00 0.00 94 1012.8
20260505010809 11 5 0.0 0.0 0.00 0.00 0.00 94 1012.8
20260505010003 11 5 0.0 0.0 0.00 0.00 0.00 94 1012.8
20260505005504 11 5 0.0 0.0 0.00 0.00 0.00 94 1012.8
20260505005004 11 5 0.0 0.0 0.00 0.00 0.00 94 1012.8
20260505004813 11 5 0.0 0.0 0.00 0.00 0.00 94 1012.9
20260505004004 11 5 0.0 0.0 0.00 0.00 0.00 94 1012.9
20260505003808 11 5 0.0 0.0 0.00 0.00 0.00 94 1012.9
20260505003003 11 5 0.0 0.0 0.00 0.00 0.00 94 1012.9
20260505002805 11 1 0.0 0.0 0.00 0.00 0.00 94 1012.9
20260505002002 11 1 0.0 0.0 0.00 0.00 0.00 94 1012.9
20260505001808 11 15 0.0 0.0 0.00 0.00 0.00 94 1013.0
20260505001000 11 15 0.0 0.0 0.00 0.00 0.00 94 1013.0
20260505000500 11 15 0.0 0.0 0.00 0.00 0.00 94 1013.0
20260504235954 11 15 0.0 0.0 0.00 0.00 0.00 94 1013.1
20260504235450 11 15 0.0 0.0 0.00 0.00 0.00 94 1013.1
20260504234951 11 15 0.0 0.0 0.00 0.00 0.00 94 1013.1
20260504234451 11 15 0.0 0.0 0.00 0.00 0.00 94 1013.2
20260504234106 11 15 0.0 0.0 0.00 0.00 0.00 94 1013.2
20260504234036 11 15 0.0 0.0 0.00 0.00 0.00 94 1013.1
20260504232952 11 15 0.0 0.0 0.00 0.00 0.00 94 1013.1
20260504232450 11 15 0.0 0.0 0.00 0.00 0.00 94 1013.2
20260504231952 11 15 0.0 0.0 0.00 0.00 0.00 94 1013.2
20260504231452 11 15 0.0 0.0 0.00 0.00 0.00 94 1013.2
20260504231002 11 15 0.0 0.0 0.00 0.00 0.00 94 1013.1
20260504230452 11 15 0.0 0.0 0.00 0.00 0.00 93 1013.1
20260504225948 11 15 0.0 0.0 0.00 0.00 0.00 93 1013.2
20260504225448 11 15 0.0 0.0 0.00 0.00 0.00 93 1013.2
20260504224948 11 15 0.0 0.0 0.00 0.00 0.00 94 1013.2
20260504224447 11 15 0.0 0.0 0.00 0.00 0.00 94 1013.2
20260504223950 11 15 0.0 0.0 0.00 0.00 0.00 94 1013.2
20260504223449 11 15 0.0 0.0 0.00 0.00 0.00 94 1013.1
20260504222948 11 15 0.0 0.0 0.00 0.00 0.00 93 1013.2
20260504222449 11 15 0.0 0.0 0.00 0.00 0.00 93 1013.2
20260504221950 11 15 0.0 0.0 0.00 0.00 0.00 93 1013.2
20260504221803 11 15 0.0 0.0 0.00 0.00 0.00 93 1013.2
20260504221308 11 15 0.0 0.0 0.00 0.00 0.00 93 1013.2
20260504220444 11 15 0.0 0.0 0.00 0.00 0.00 93 1013.3
20260504215943 11 15 0.0 0.0 0.00 0.00 0.00 93 1013.3
20260504215441 11 15 0.0 0.0 0.00 0.00 0.00 93 1013.3
20260504214938 11 15 0.0 0.0 0.00 0.00 0.00 93 1013.3
20260504214800 11 15 0.0 0.0 0.00 0.00 0.00 93 1013.3
20260504213933 11 15 0.0 0.0 0.00 0.00 0.00 93 1013.3
20260504213430 11 15 0.0 0.0 0.00 0.00 0.00 93 1013.3
20260504212932 11 15 0.0 0.0 0.00 0.00 0.00 93 1013.3
20260504212752 11 15 0.0 0.0 0.00 0.00 0.00 93 1013.3
20260504211932 11 15 0.0 0.0 0.00 0.00 0.00 93 1013.3
20260504211430 11 15 0.0 0.0 0.00 0.00 0.00 93 1013.3
20260504211304 11 15 0.0 0.0 0.00 0.00 0.00 93 1013.4
20260504210434 11 15 0.0 0.0 0.00 0.00 0.00 92 1013.4
20260504205929 11 15 0.0 0.0 0.00 0.00 0.00 92 1013.4
20260504205428 11 15 0.0 0.0 0.00 0.00 0.00 92 1013.4
20260504204925 11 15 0.0 0.0 0.00 0.00 0.00 92 1013.5
20260504204741 11 15 0.0 0.0 0.00 0.00 0.00 92 1013.4
20260504203920 11 15 0.0 0.0 0.00 0.00 0.00 92 1013.4
20260504203741 11 15 0.0 0.0 0.00 0.00 0.00 91 1013.3
20260504202918 11 15 0.0 0.0 0.00 0.00 0.00 91 1013.2
20260504202417 11 15 0.0 0.0 0.00 0.00 0.00 91 1013.2
20260504201917 11 15 0.0 0.0 0.00 0.00 0.00 90 1013.2
20260504201411 11 15 0.0 0.0 0.00 0.00 0.00 90 1013.1
20260504200904 10 19 0.0 0.0 0.00 0.00 0.00 90 1013.1
20260504200404 10 19 0.0 0.0 0.00 0.00 0.00 89 1013.0
20260504195904 11 19 0.0 0.0 0.00 0.00 0.00 89 1013.1
20260504195404 11 19 0.0 0.0 0.00 0.00 0.00 88 1013.1
20260504194903 11 19 0.0 0.0 0.00 0.00 0.00 88 1013.0
20260504194402 11 19 0.0 0.0 0.00 0.00 0.00 87 1013.0
20260504193903 11 19 0.0 0.0 0.00 0.00 0.00 87 1013.0
20260504193405 11 19 0.0 0.0 0.00 0.00 0.00 86 1013.0
20260504192904 11 19 0.0 0.0 0.00 0.00 0.00 86 1013.0
20260504192402 12 19 0.0 0.0 0.00 0.00 0.00 86 1012.9
20260504191907 12 19 0.0 0.0 0.00 0.00 0.00 85 1012.9
20260504191404 12 19 0.0 0.0 0.00 0.00 0.00 85 1012.8
20260504190905 13 19 0.0 0.0 0.00 0.00 0.00 85 1012.7
20260504190402 13 19 0.0 0.0 0.00 0.00 0.00 86 1012.7
20260504185903 13 19 0.0 0.0 0.00 0.00 0.00 86 1012.8
20260504185404 13 19 0.0 0.0 0.00 0.00 0.00 85 1012.8
20260504185215 13 19 0.0 0.0 0.00 0.00 0.00 85 1012.8
20260504184402 13 19 0.0 0.0 0.00 0.00 0.00 85 1012.8
20260504183901 13 19 0.0 0.0 0.00 0.00 0.00 85 1012.8
20260504183400 13 19 0.0 0.0 0.00 0.00 0.00 85 1012.8
20260504182857 13 20 0.0 0.0 0.00 0.00 0.00 85 1012.8
20260504182358 13 21 0.0 0.0 0.00 0.00 0.00 85 1012.7
20260504181858 13 20 0.0 0.0 0.00 0.00 0.00 84 1012.7
20260504181356 13 21 0.0 0.0 0.00 0.00 0.00 84 1012.7
20260504180902 13 20 0.0 0.0 0.00 0.00 0.00 84 1012.6
20260504180354 13 21 0.0 0.0 0.00 0.00 0.00 84 1012.6
20260504180212 13 20 0.0 0.0 0.00 0.00 0.00 84 1012.6
20260504175354 13 20 0.0 0.0 0.00 0.00 0.00 84 1012.7
20260504175211 13 21 0.0 0.0 0.00 0.00 0.00 84 1012.7
20260504174722 13 20 0.0 0.0 0.00 0.00 0.00 84 1012.6
20260504173855 13 21 0.0 0.0 0.00 0.00 0.00 84 1012.5
20260504173355 14 21 0.0 0.0 0.00 0.00 0.00 84 1012.5
20260504172858 14 21 0.0 0.0 0.00 0.00 0.00 84 1012.6
20260504172354 14 21 0.0 0.0 0.00 0.00 0.00 83 1012.7
20260504172204 14 21 0.0 0.0 0.00 0.00 0.00 83 1012.6
20260504171351 14 21 0.0 0.0 0.00 0.00 0.00 83 1012.7
20260504171208 14 21 0.0 0.0 0.00 0.00 0.00 83 1012.6
20260504170659 14 19 0.0 0.0 0.00 0.00 0.00 83 1012.7
20260504160347 16 234 0.0 0.0 0.00 0.00 0.00 76 1012.5
20260504150337 16 223 0.0 0.0 0.00 0.00 0.00 77 1012.7
20260504140833 17 240 0.0 0.0 0.00 0.00 0.00 76 1012.7
20260504140330 17 248 0.0 0.0 0.00 0.00 0.00 76 1012.8
20260504130327 17 245 0.0 0.0 0.00 0.00 0.00 75 1012.6
20260504130149 17 249 0.0 0.0 0.00 0.00 0.00 76 1012.6
20260504120303 16 188 0.0 0.0 0.00 0.00 0.00 79 1012.4
20260504110310 18 212 0.0 0.0 0.00 0.00 0.00 72 1012.5